星链-5506 (STARLINK-5506 )

导读 | 星芒AI

STARLINK-5506 是 SpaceX 星链(Starlink)卫星互联网项目中的一颗低轨通信卫星。该卫星属于星链计划的第五批发射任务,旨在为全球用户提供高速、低延迟的互联网服务。它运行在约 550 公里的近地轨道,采用先进的通信技术,支持宽带数据传输。作为星链星座的一部分,STARLINK-5506 有助于扩大覆盖范围,提升网络连接质量,特别是在偏远和网络基础设施薄弱的地区。

基本信息
目录编号:
55651
目录名称:
STARLINK-5506
国际标识:
2023-021Z
轨道中心:
EARTH
卫星名称:
星链-5506
卫星全名:
星链-5506 (STARLINK-5506 )
卫星状态:
在轨 (已飞行991 天)
发射日期:
2023-02-17 UTC
国别 :
美国 (US)
星等 :
--
轨道信息
数据来源 国际轨道数据
星历时间: 2025-11-04T06:38:10+0800
18小时前
查看轨道信息
半长轴: 6950.155km
偏心率: 0.0002893
轨道倾角: 69.998°
近地点辐角 273.857°
升交点赤经 141.596°
平近点角 86.226°
近地点: 570.009km
远地点: 574.031km
周期: 96.106分钟
每日圈数: 14.983423
详细信息
固有亮度:
5
最大亮度:
2.5
卫星平台:
Starlink v1.5
覆盖范围:
全球
运营商:
太空探索技术公司
运营商所在国:
美国
制造商(研发单位):
太空探索技术公司
制造商所在国:
美国
使用方式:
暂无
卫星简介
星链(Starlink)计划是由太空探索技术公司(SpaceX)提出的一个巨型低轨卫星互联网星座项目,计划在2019年至2024年间在太空搭建由约1.2万颗卫星组成的“星链”网络,其中1584颗将部署在地球上空550千米处的近地轨道,并从2020年开始工作。该卫星仍在工作。
2D轨道图
3D轨道图
轨道高度分析图
轨道倾角分析图
轨道综合分析图
查看轨道综合分析图